Weather in Svoboda

Russia / Kursk Oblast     51°58′25″N   36°18′17″E
temp.,
°C
wind,
m/s
gust,
m/s
humid.,
%
clouds,
%
prec.,
mm/h
press.,
hPa
HPBL,
m
25 february, thu
thu2500:00−9ssw379599 0.1 1032210
03:00−6sw4896100 0.2 1030235
06:00−6sw4897100 0.1 1028196
09:00−1wsw61296100 0.1 1026475
12:00+1wsw613100100 0.1 1023351
15:00+2w715100100 0.1 1022407
18:00+2w513100100 0.3 1021315
21:00+2w512100100 0.3 1021268
26 february, fri
fri2600:00+2wnw613100100 0.2 1021297
03:00+2wnw51199100 0.3 1021241
06:00+2w510100100 0.0 1020213
09:00+2w61299100 0.0 1019327
12:00+2wsw715100100 0.0 1017442
15:00+3w71599100 0.2 1015381
18:00+2w61399100 0.1 1013347
21:00+2w61397100 0.2 1013449
27 february, sat
sat2700:00+1w61396100 0.0 1012476
03:00+1w51295100 0.0 1011490
06:00+1w61197100 0.1 1009529
09:000wnw61198100 0.4 1008525
12:00+1w611100100 0.2 1007603
15:00+1wnw51099100 0.4 1008472
18:00+1nw51097100 0.3 1008516
21:000nw5119499 0.3 1009523
28 february, sun
sun2800:000nnw6119299 0.2 1011734
03:00−4n6128996 0.3 1014682
06:00−4n698896 0.1 1016757
09:00−5n698698 0.1 1018753
12:00−4n6888100 0.1 1019654
15:00−3nnw6886100 0.1 1020767
18:00−3n4991100 0.1 1021673
21:00−4nnw369599 0.1 1023211
1 march, mon
mon100:00−3nne389497 0.1 1024596
03:00−4n269498 0.1 1026495
06:00−4n3690100 0.1 1027456
09:00−4n3584100 0.1 1029838
12:00−3n358392 0.0 1031674
15:00−2nw358485 0.0 1031618
18:00−4w338938 0.0 103154
21:00−4w369242 0.0 1031117